Voltar ao catálogo

STARLINK-35053

AtivoComunicaçõesSSO
NORAD 65609·PAYLOAD·🇺🇸 United States

Lançado Sep 13, 2025 de Cape Canaveral Space Force Station

Loading…

Próximas Passagens (próximas 24 horas)

TLE

AtualizadoSource: CelesTrak SupGP

Época: Sep 14, 2026, 23:09 UTC

1 65609C 25207T   26257.96506944  .00261620  00000+0  15898-1 0  2572
2 65609  97.2846 320.6615 0001871  94.4780 325.2091 15.10433924    11

Acompanhe STARLINK-35053 em tempo real com AllMySat

Download on the App Store